Location: Allen Fire Department Station 4
(33.1073°N, 96.6988°W)
Time: 03:02:34
(UTC+00:00)

Cosmos 1763 Rocket - Visible Passes

Search period start: 28 June 2022 00:00
Search period end: 08 July 2022 00:00
Orbit: 732 x 780 km, 74.0° (Epoch: 27 June)

Date Brightness Start Highest point End Pass type
(mag) Time Alt. Az. Time Alt. Az. Time Alt. Az.
28 Jun 6.0 07:01:05 12° E 07:01:05 12° E 07:02:00 10° ENE visible
28 Jun 3.6 08:41:05 58° WNW 08:41:06 58° WNW 08:46:16 10° N visible
29 Jun 3.9 08:01:15 60° NE 08:01:15 60° NE 08:05:41 10° NNE visible
29 Jun 5.6 09:41:16 10° WNW 09:42:47 12° WNW 09:44:35 10° NW visible
30 Jun 5.0 07:21:24 29° ENE 07:21:24 29° ENE 07:24:39 10° NE visible
30 Jun 5.0 09:01:24 22° WNW 09:01:47 22° WNW 09:05:50 10° NNW visible
01 Jul 5.8 06:41:30 14° ENE 06:41:30 14° ENE 06:42:56 10° NE visible
01 Jul 4.3 08:21:31 41° NW 08:21:31 41° NW 08:25:54 10° N visible
02 Jul 4.2 07:41:36 50° N 07:41:36 50° N 07:45:30 10° NNE visible
03 Jul 5.0 07:01:39 32° NE 07:01:39 32° NE 07:04:41 10° NNE visible
03 Jul 5.4 08:41:40 17° WNW 08:41:42 17° WNW 08:45:02 10° NNW visible
04 Jul 5.7 06:21:41 17° ENE 06:21:41 17° ENE 06:23:21 10° NE visible
04 Jul 4.9 08:01:41 29° NW 08:01:41 29° NW 08:05:26 10° N visible
05 Jul 4.6 07:21:42 40° N 07:21:42 40° N 07:25:13 10° N visible
06 Jul 5.0 06:41:40 33° NNE 06:41:40 33° NNE 06:44:36 10° NNE visible
06 Jul 5.8 08:21:41 12° WNW 08:21:41 12° WNW 08:23:50 10° NW visible
07 Jul 5.5 06:01:38 20° NE 06:01:38 20° NE 06:03:32 10° NE visible
07 Jul 5.3 07:41:38 22° NW 07:41:38 22° NW 07:44:51 10° NNW visible
